This demonstration page uses our WeatherBlox Daily Observations layout. Learn more.

Hourly Observations for June 6, 2016

Temp ( °F °C ) Dew Point ( °F °C ) Humidity (%) Winds ( mph kmh ) Pressure ( in mb ) Visibility ( mi km ) Precip ( " mm )
12:15 am 00:15 Clear 68 20.1 44 6.6 42 42 SSW 5 7 29.88 1012 10 16.09344 0 0
12:35 am 00:35 Clear 67 19.3 44 6.9 45 45 SW 3 6 29.88 1012 10 16.09344 0 0
12:55 am 00:55 Clear 68 20 45 7.2 44 44 SW 5 7 29.88 1012 10 16.09344 0 0
1:15 am 01:15 Clear 65 18.3 46 7.6 50 50 Calm 29.91 1013 10 16.09344 0 0
1:35 am 01:35 Clear 65 18.3 46 7.9 51 51 SW 6 9 29.91 1013 7 11.265408 0 0
1:55 am 01:55 Clear 64 17.5 47 8.2 55 55 SW 3 6 29.91 1013 7 11.265408 0 0
2:15 am 02:15 Clear 65 18.2 47 8.3 53 53 SW 7 11 29.91 1013 7 11.265408 0 0
2:35 am 02:35 Clear 67 19.4 47 8.1 48 48 SW 8 13 29.88 1012 10 16.09344 0 0
2:55 am 02:55 Clear 67 19.7 46 8 47 47 WSW 7 11 29.88 1012 10 16.09344 0 0
3:15 am 03:15 Clear 67 19.4 46 8 48 48 WSW 7 11 29.88 1012 10 16.09344 0 0
3:35 am 03:35 Clear 67 19.5 46 8 48 48 WSW 7 11 29.88 1012 10 16.09344 0 0
3:55 am 03:55 Clear 67 19.5 46 8 48 48 WSW 8 13 29.88 1012 10 16.09344 0 0
4:15 am 04:15 Clear 67 19.5 46 8 48 48 WSW 9 15 29.88 1012 10 16.09344 0 0
4:35 am 04:35 Clear 67 19.5 46 8 48 48 WSW 9 15 29.88 1012 10 16.09344 0 0
4:55 am 04:55 Clear 66 18.9 47 8.1 50 50 W 8 13 29.91 1013 10 16.09344 0 0
5:15 am 05:15 Clear 65 18.5 47 8.2 51 51 W 8 13 29.91 1013 10 16.09344 0 0
5:35 am 05:35 Clear 65 18.5 47 8.2 51 51 W 8 13 29.91 1013 10 16.09344 0 0
5:55 am 05:55 Clear 65 18.5 47 8.3 52 52 W 9 15 29.91 1013 10 16.09344 0 0
6:15 am 06:15 Sunny 64 17.5 47 8.5 56 56 W 6 9 29.91 1013 10 16.09344 0 0
6:35 am 06:35 Sunny 63 17.2 48 8.8 58 58 WNW 5 7 29.91 1013 10 16.09344 0 0
6:55 am 06:55 Sunny 63 17 49 9.2 60 60 Calm 29.91 1013 10 16.09344 0 0
7:15 am 07:15 Sunny 65 18.3 49 9.7 57 57 WNW 3 6 29.91 1013 10 16.09344 0 0
7:35 am 07:35 Sunny 64 17.7 51 10.4 62 62 N 5 7 29.91 1013 7 11.265408 0 0
7:55 am 07:55 Sunny 65 18.5 50 10.2 59 59 NNW 6 9 29.91 1013 7 11.265408 0 0
8:15 am 08:15 Sunny 67 19.7 52 10.9 57 57 Calm 29.88 1012 10 16.09344 0 0
8:35 am 08:35 Sunny 69 20.5 51 10.7 54 54 N 6 9 29.91 1013 10 16.09344 0 0
8:55 am 08:55 Sunny 69 20.7 50 9.9 50 50 N 5 7 29.88 1012 10 16.09344 0 0
9:15 am 09:15 Sunny 72 22.1 51 10.4 48 48 NNW 3 6 29.88 1012 10 16.09344 0 0
9:35 am 09:35 Sunny 75 23.9 49 9.5 40 40 NNW 7 11 29.85 1011 10 16.09344 0 0
9:55 am 09:55 Sunny 77 24.9 48 8.9 36 36 NNW 6 9 29.85 1011 10 16.09344 0 0
10:15 am 10:15 Sunny 78 25.6 48 8.9 35 35 NW 6 9 29.88 1012 10 16.09344 0 0
10:35 am 10:35 Sunny 79 26 49 9.5 35 35 NNW 7 11 29.85 1011 10 16.09344 0 0
10:55 am 10:55 Sunny 78 25.8 49 9.2 35 35 NE 3 6 29.85 1011 10 16.09344 0 0
11:15 am 11:15 Sunny 79 26.2 48 9.1 34 34 N 5 7 29.85 1011 10 16.09344 0 0
11:35 am 11:35 Sunny 80 26.7 48 8.8 32 32 NNW 7 11 29.83 1010 10 16.09344 0 0
11:55 am 11:55 Sunny 81 27.4 49 9.2 32 32 NNW 9 15 29.83 1010 10 16.09344 0 0
12:15 pm 12:15 Sunny 82 27.6 49 9.3 32 32 NNW 3 6 29.83 1010 10 16.09344 0 0
12:35 pm 12:35 Sunny 82 27.9 49 9.3 31 31 Calm 29.83 1010 10 16.09344 0 0
12:55 pm 12:55 Sunny 83 28.1 50 9.8 32 32 NW 6 9 29.83 1010 10 16.09344 0 0
1:15 pm 13:15 Sunny 83 28.2 49 9.3 31 31 Calm 29.83 1010 10 16.09344 0 0
1:35 pm 13:35 Sunny 83 28.6 49 9.6 30 30 Calm 29.83 1010 10 16.09344 0 0
1:55 pm 13:55 Sunny 84 28.7 49 9.6 30 30 NE 13 20 29.83 1010 10 16.09344 0 0
2:15 pm 14:15 Sunny 83 28.3 47 8.3 28 28 NNE 13 20 29.83 1010 10 16.09344 0 0
2:35 pm 14:35 Sunny 82 28 48 8.7 30 30 NNE 14 22 29.83 1010 10 16.09344 0 0
2:55 pm 14:55 Sunny 83 28.5 48 8.7 29 29 N 10 17 29.83 1010 10 16.09344 0 0
3:15 pm 15:15 Sunny 83 28.4 50 9.8 31 31 NNE 10 17 29.83 1010 10 16.09344 0 0
3:35 pm 15:35 Sunny 83 28.4 48 9.1 30 30 N 10 17 29.8 1009 10 16.09344 0 0
3:55 pm 15:55 Sunny 82 27.8 49 9.3 31 31 NE 17 28 29.83 1010 10 16.09344 0 0
4:15 pm 16:15 Sunny 83 28.2 48 9.1 30 30 N 13 20 29.83 1010 10 16.09344 0 0
4:35 pm 16:35 Sunny 83 28.3 47 8.1 28 28 NNE 16 26 29.8 1009 10 16.09344 0 0
4:55 pm 16:55 Sunny 83 28.1 47 8.5 29 29 NNE 16 26 29.8 1009 10 16.09344 0 0
5:15 pm 17:15 Sunny 82 27.7 47 8.5 30 30 N 15 24 29.8 1009 10 16.09344 0 0
5:35 pm 17:35 Sunny 82 27.7 46 7.6 28 28 NNE 15 24 29.8 1009 10 16.09344 0 0
5:55 pm 17:55 Sunny 81 27.4 46 7.7 29 29 N 16 26 29.8 1009 10 16.09344 0 0
6:15 pm 18:15 Sunny 81 27.1 47 8.1 30 30 NNE 17 28 29.8 1009 10 16.09344 0 0
6:35 pm 18:35 Sunny 80 26.5 47 8.3 32 32 NNE 13 20 29.83 1010 7 11.265408 0 0
6:55 pm 18:55 Sunny 79 26.1 47 8.4 33 33 N 13 20 29.83 1010 10 16.09344 0 0
7:15 pm 19:15 Sunny 78 25.8 47 8.2 33 33 NNE 14 22 29.83 1010 10 16.09344 0 0
7:35 pm 19:35 Sunny 77 25.2 47 8.2 34 34 NNE 13 20 29.85 1011 10 16.09344 0 0
7:55 pm 19:55 Sunny 76 24.6 46 8 35 35 NE 14 22 29.85 1011 10 16.09344 0 0
8:15 pm 20:15 Sunny 75 24 47 8.3 37 37 NNE 13 20 29.85 1011 10 16.09344 0 0
8:35 pm 20:35 Sunny 74 23.2 47 8.1 38 38 NE 14 22 29.85 1011 10 16.09344 0 0
8:55 pm 20:55 Sunny 72 22.2 45 7.1 38 38 NE 12 19 29.91 1013 10 16.09344 0 0
9:15 pm 21:15 Clear 70 21 45 7.2 41 41 NE 10 17 29.91 1013 10 16.09344 0 0
9:35 pm 21:35 Clear 69 20.3 45 7 42 42 NE 10 17 29.91 1013 10 16.09344 0 0
9:55 pm 21:55 Clear 68 19.8 45 7 44 44 NE 9 15 29.91 1013 10 16.09344 0 0
10:15 pm 22:15 Clear 64 18 45 7.4 50 50 NE 6 9 29.97 1015 10 16.09344 0 0
10:35 pm 22:35 Clear 62 16.6 46 7.6 56 56 NE 7 11 29.97 1015 10 16.09344 0 0
10:55 pm 22:55 Clear 61 16 46 7.6 58 58 NE 7 11 30 1016 10 16.09344 0 0
11:15 pm 23:15 Clear 61 16.1 46 7.5 57 57 NE 8 13 30.03 1017 10 16.09344 0 0
11:35 pm 23:35 Clear 60 15.5 46 7.5 59 59 NE 8 13 30.03 1017 10 16.09344 0 0
11:55 pm 23:55 Clear 60 15.5 46 7.5 59 59 NE 9 15 30 1016 10 16.09344 0 0

Powered by AerisWeather